Location: Bon Acre
(42.6442°N, 73.5758°W)
Time: 09:49:13
(UTC+00:00)

ARIANE 6 FM1 Upper Stage - Pass Details

Date: 17 February 2026
Orbit: 523 x 607 km, 62.0° (Epoch: 7 March)

Event Time Altitude Azimuth Distance (km) Brightness Sun altitude
Rises 00:03:59 0° 324° (NW) 2,658 6.6 -18.3°
Reaches altitude 10° 00:06:11 10° 328° (NNW) 1,767 5.6 -18.7°
Maximum altitude 00:10:07 63° 50° (NE) 590 2.5 -19.5°
Enters shadow 00:10:37 56° 90° (E) 628 2.5 -19.5°
